^^
Meteo Knjazevac Station Historical Data
Daily Summary for February 8, 2022 Units:  English    Metric   Both
Daily Weekly Monthly Yearly Custom
  High: Low: Average:
Temperature: 43.3 °F 40.1 °F 41 °F
Dew Point: 43 °F 39.8 °F 40.8 °F
Humidity: 99% 99% 99%
Wind Speed: 6mph 0mph 2.1mph
Wind Gust: 7mph - -
Wind- - ENE
Pressure: 30.07 in 30.01 in -
Precipitation: 0.05 in    
Historical Graphs
 
 
Tabular Data for February 8, 2022
Time Temperature Dew Point Pressure Wind Wind Speed Wind Gust Humidity Rainfall Rate (Hourly) solar Conditions
00:04 40.1 °F 39.8 °F 30.04 in NNE 1.1 mph 2 mph 99% 0.00 in 0 W/m2
00:09 40.1 °F 39.8 °F 30.04 in NNE 1.6 mph 2 mph 99% 0.00 in 0 W/m2
00:14 40.1 °F 39.8 °F 30.04 in NNE 0.2 mph 2 mph 99% 0.00 in 0 W/m2
00:19 40.1 °F 39.8 °F 30.04 in Calm     99% 0.00 in 0 W/m2
00:24 40.1 °F 39.8 °F 30.04 in North 2 mph 2.2 mph 99% 0.00 in 0 W/m2
00:29 40.1 °F 39.8 °F 30.05 in NNE 1.2 mph 3 mph 99% 0.00 in 0 W/m2
00:34 40.1 °F 39.8 °F 30.05 in NNE 1.6 mph 2 mph 99% 0.00 in 0 W/m2
00:39 40.1 °F 39.8 °F 30.05 in Calm   2 mph 99% 0.00 in 0 W/m2
00:44 40.1 °F 39.8 °F 30.05 in NNE 1.8 mph 2.2 mph 99% 0.00 in 0 W/m2
00:49 40.1 °F 39.8 °F 30.05 in NE 2.4 mph 3 mph 99% 0.00 in 0 W/m2
00:54 40.1 °F 39.8 °F 30.05 in NE 1.6 mph 3 mph 99% 0.00 in 0 W/m2
00:59 40.1 °F 39.8 °F 30.05 in NE 1.2 mph 2 mph 99% 0.00 in 0 W/m2
01:04 40.1 °F 39.8 °F 30.05 in NE 0.6 mph 1 mph 99% 0.00 in 0 W/m2
01:09 40.1 °F 39.8 °F 30.05 in Calm   1 mph 99% 0.01 in 0 W/m2
01:14 40.1 °F 39.8 °F 30.05 in NW 0.8 mph 0.2 mph 99% 0.02 in 0 W/m2
01:19 40.1 °F 39.8 °F 30.05 in WNW 0.8 mph 1 mph 99% 0.02 in 0 W/m2
01:24 40.1 °F 39.8 °F 30.05 in WNW 1.3 mph 2 mph 99% 0.02 in 0 W/m2
01:29 40.1 °F 39.8 °F 30.05 in NW 1 mph 2 mph 99% 0.02 in 0 W/m2
01:34 40.1 °F 39.8 °F 30.05 in Calm   2 mph 99% 0.02 in 0 W/m2
01:39 40.1 °F 39.8 °F 30.05 in Calm     99% 0.02 in 0 W/m2
01:44 40.1 °F 39.8 °F 30.05 in North 0.9 mph 0.2 mph 99% 0.02 in 0 W/m2
01:49 40.1 °F 39.8 °F 30.05 in NW 0.3 mph 1 mph 99% 0.02 in 0 W/m2
01:54 40.1 °F 39.8 °F 30.05 in Calm   1 mph 99% 0.02 in 0 W/m2
01:59 40.1 °F 39.8 °F 30.05 in Calm     99% 0.02 in 0 W/m2
02:04 40.1 °F 39.8 °F 30.05 in Calm     99% 0.02 in 0 W/m2
02:09 40.1 °F 39.8 °F 30.05 in Calm     99% 0.02 in 0 W/m2
02:14 40.1 °F 39.8 °F 30.05 in Calm     99% 0.01 in 0 W/m2
02:19 40.1 °F 39.8 °F 30.05 in Calm     99% 0.00 in 0 W/m2
02:24 40.1 °F 39.8 °F 30.05 in Calm     99% 0.00 in 0 W/m2
02:29 40.1 °F 39.8 °F 30.05 in Calm     99% 0.00 in 0 W/m2
02:34 40.1 °F 39.8 °F 30.05 in Calm     99% 0.00 in 0 W/m2
02:39 40.1 °F 39.8 °F 30.05 in Calm     99% 0.00 in 0 W/m2
02:44 40.1 °F 39.8 °F 30.04 in North 0.4 mph 0.2 mph 99% 0.00 in 0 W/m2
02:49 40.1 °F 39.8 °F 30.04 in North 0.7 mph 1 mph 99% 0.00 in 0 W/m2
02:54 40.1 °F 39.8 °F 30.04 in Calm   1 mph 99% 0.00 in 0 W/m2
02:59 40.1 °F 39.8 °F 30.04 in NE 0.4 mph   99% 0.00 in 0 W/m2
03:04 40.1 °F 39.8 °F 30.04 in NNE 1.7 mph 1 mph 99% 0.00 in 0 W/m2
03:09 40.1 °F 39.8 °F 30.04 in NW 1.8 mph 2 mph 99% 0.01 in 0 W/m2
03:14 40.1 °F 39.8 °F 30.04 in NW 1.7 mph 2 mph 99% 0.01 in 0 W/m2
03:19 40.1 °F 39.8 °F 30.04 in NW 0.2 mph 2 mph 99% 0.01 in 0 W/m2
03:24 40.1 °F 39.8 °F 30.04 in Calm     99% 0.01 in 0 W/m2
03:29 40.1 °F 39.8 °F 30.04 in WNW 0.8 mph 0.2 mph 99% 0.01 in 0 W/m2
03:34 40.1 °F 39.8 °F 30.04 in NNW 1.2 mph 1 mph 99% 0.01 in 0 W/m2
03:39 40.1 °F 39.8 °F 30.04 in NNE 2 mph 2 mph 99% 0.01 in 0 W/m2
03:44 40.1 °F 39.8 °F 30.04 in North 2 mph 2 mph 99% 0.01 in 0 W/m2
03:49 40.1 °F 39.8 °F 30.04 in North 1.9 mph 2 mph 99% 0.01 in 0 W/m2
03:54 40.1 °F 39.8 °F 30.04 in North 1.6 mph 2 mph 99% 0.01 in 0 W/m2
03:59 40.1 °F 39.8 °F 30.04 in North 1.6 mph 2 mph 99% 0.01 in 0 W/m2
04:04 40.1 °F 39.8 °F 30.04 in North 0.8 mph 2 mph 99% 0.01 in 0 W/m2
04:09 40.1 °F 39.8 °F 30.04 in Calm   1 mph 99% 0.01 in 0 W/m2
04:14 40.1 °F 39.8 °F 30.04 in North 0.6 mph 0.2 mph 99% 0.00 in 0 W/m2
04:19 40.1 °F 39.8 °F 30.04 in NNW 1 mph 1 mph 99% 0.00 in 0 W/m2
04:24 40.1 °F 39.8 °F 30.04 in NW 0.2 mph 1 mph 99% 0.00 in 0 W/m2
04:29 40.1 °F 39.8 °F 30.04 in West 1.9 mph 1.3 mph 99% 0.00 in 0 W/m2
04:34 40.1 °F 39.8 °F 30.04 in WNW 1.4 mph 2 mph 99% 0.00 in 0 W/m2
04:39 40.1 °F 39.8 °F 30.04 in WNW 0.3 mph 2 mph 99% 0.00 in 0 W/m2
04:44 40.1 °F 39.8 °F 30.04 in NW 0.5 mph 1 mph 99% 0.00 in 0 W/m2
04:49 40.1 °F 39.8 °F 30.04 in NW 0.5 mph 1 mph 99% 0.00 in 0 W/m2
04:54 40.1 °F 39.8 °F 30.04 in Calm   1 mph 99% 0.00 in 0 W/m2
04:59 40.1 °F 39.8 °F 30.04 in Calm     99% 0.00 in 0 W/m2
05:04 40.1 °F 39.8 °F 30.04 in Calm     99% 0.00 in 0 W/m2
05:09 40.1 °F 39.8 °F 30.04 in Calm     99% 0.00 in 0 W/m2
05:14 40.1 °F 39.8 °F 30.04 in North 0.5 mph 0.2 mph 99% 0.00 in 0 W/m2
05:19 40.1 °F 39.8 °F 30.04 in North 1.8 mph 2.9 mph 99% 0.00 in 0 W/m2
05:24 40.1 °F 39.8 °F 30.04 in NNE 2.3 mph 3 mph 99% 0.00 in 0 W/m2
05:29 40.2 °F 39.9 °F 30.04 in NNE 1.3 mph 3 mph 99% 0.00 in 0 W/m2
05:34 40.2 °F 39.9 °F 30.04 in NNE 1.5 mph 2 mph 99% 0.00 in 0 W/m2
05:39 40.3 °F 40 °F 30.04 in North 1 mph 2 mph 99% 0.00 in 0 W/m2
05:44 40.2 °F 39.9 °F 30.04 in North 2.5 mph 2.2 mph 99% 0.00 in 0 W/m2
05:49 40.2 °F 39.9 °F 30.04 in North 2.8 mph 3 mph 99% 0.00 in 0 W/m2
05:54 40.2 °F 39.9 °F 30.04 in NNE 2.5 mph 3 mph 99% 0.00 in 0 W/m2
05:59 40.1 °F 39.8 °F 30.04 in NNE 2.6 mph 2.2 mph 99% 0.00 in 0 W/m2
06:04 40.1 °F 39.8 °F 30.04 in North 3.5 mph 3.4 mph 99% 0.00 in 0 W/m2
06:09 40.1 °F 39.8 °F 30.04 in North 2.4 mph 5 mph 99% 0.00 in 0 W/m2
06:14 40.1 °F 39.8 °F 30.04 in North 2.2 mph 2 mph 99% 0.00 in 0 W/m2
06:19 40.1 °F 39.8 °F 30.04 in NNE 2.5 mph 2.2 mph 99% 0.00 in 0 W/m2
06:24 40.1 °F 39.8 °F 30.04 in North 2.1 mph 3 mph 99% 0.00 in 0 W/m2
06:29 40.1 °F 39.8 °F 30.04 in NNE 2.4 mph 2.2 mph 99% 0.00 in 0 W/m2
06:34 40.1 °F 39.8 °F 30.05 in NNE 2.7 mph 3 mph 99% 0.00 in 0 W/m2
06:39 40.1 °F 39.8 °F 30.05 in North 1.9 mph 3 mph 99% 0.00 in 0 W/m2
06:44 40.1 °F 39.8 °F 30.05 in North 2.1 mph 2 mph 99% 0.00 in 0 W/m2
06:49 40.1 °F 39.8 °F 30.05 in North 2.7 mph 2 mph 99% 0.00 in 0 W/m2
06:54 40.1 °F 39.8 °F 30.05 in North 2.9 mph 4 mph 99% 0.00 in 2 W/m2
06:59 40.1 °F 39.8 °F 30.05 in North 2.2 mph 4 mph 99% 0.00 in 2 W/m2
07:04 40.1 °F 39.8 °F 30.06 in NNE 1.2 mph 2 mph 99% 0.00 in 3 W/m2
07:09 40.1 °F 39.8 °F 30.06 in NNE 1.2 mph 2 mph 99% 0.00 in 6 W/m2
07:14 40.1 °F 39.8 °F 30.06 in NNE 2.2 mph 2 mph 99% 0.00 in 7 W/m2
07:19 40.1 °F 39.8 °F 30.06 in NNE 2.3 mph 2 mph 99% 0.00 in 11 W/m2
07:24 40.1 °F 39.8 °F 30.06 in NNE 2.5 mph 2.5 mph 99% 0.00 in 12 W/m2
07:29 40.1 °F 39.8 °F 30.06 in NNE 0.9 mph 3 mph 99% 0.00 in 12 W/m2
07:34 40.1 °F 39.8 °F 30.06 in NNE 2.1 mph 2 mph 99% 0.00 in 18 W/m2
07:39 40.3 °F 40 °F 30.06 in NNE 1.9 mph 3 mph 99% 0.00 in 19 W/m2
07:44 40.3 °F 40 °F 30.06 in NNE 2.2 mph 2 mph 99% 0.00 in 22 W/m2
07:49 40.3 °F 40 °F 30.06 in North 2.1 mph 2 mph 99% 0.00 in 22 W/m2
07:54 40.3 °F 40 °F 30.06 in North 1.4 mph 2 mph 99% 0.00 in 19 W/m2
07:59 40.3 °F 40 °F 30.06 in NNW 0.8 mph 2 mph 99% 0.00 in 25 W/m2
08:04 40.3 °F 40 °F 30.06 in NW 1.9 mph 3 mph 99% 0.00 in 31 W/m2
08:09 40.3 °F 40 °F 30.06 in NW 3.7 mph 3 mph 99% 0.00 in 40 W/m2
08:14 40.3 °F 40 °F 30.06 in NNW 0.5 mph 5 mph 99% 0.00 in 50 W/m2
08:19 40.5 °F 40.2 °F 30.06 in North 0.7 mph 1.6 mph 99% 0.00 in 51 W/m2
08:24 40.5 °F 40.2 °F 30.06 in North 2.1 mph 2 mph 99% 0.00 in 51 W/m2
08:29 40.6 °F 40.4 °F 30.06 in North 2.1 mph 2 mph 99% 0.00 in 38 W/m2
08:34 40.6 °F 40.4 °F 30.06 in NNE 2.3 mph 2 mph 99% 0.00 in 50 W/m2
08:39 40.7 °F 40.5 °F 30.06 in NNE 2.4 mph 3 mph 99% 0.00 in 52 W/m2
08:44 40.8 °F 40.6 °F 30.07 in NNE 1.8 mph 3 mph 99% 0.00 in 49 W/m2
08:49 41 °F 40.7 °F 30.07 in NNE 2.6 mph 2 mph 99% 0.00 in 42 W/m2
08:54 41 °F 40.7 °F 30.07 in NNE 2.4 mph 3 mph 99% 0.00 in 48 W/m2
08:59 41.1 °F 40.8 °F 30.07 in NNE 2.7 mph 3 mph 99% 0.00 in 53 W/m2
09:04 41.2 °F 40.9 °F 30.07 in NNE 3 mph 3 mph 99% 0.00 in 52 W/m2
09:09 41.2 °F 40.9 °F 30.07 in NNE 3.3 mph 4 mph 99% 0.00 in 63 W/m2
09:14 41.2 °F 40.9 °F 30.07 in NNE 2.2 mph 3 mph 99% 0.00 in 65 W/m2
09:19 41.4 °F 41.1 °F 30.07 in NNE 2.3 mph 3 mph 99% 0.00 in 66 W/m2
09:24 41.4 °F 41.1 °F 30.07 in NNE 2.6 mph 3 mph 99% 0.00 in 87 W/m2
09:29 41.5 °F 41.2 °F 30.07 in NNE 3.2 mph 3 mph 99% 0.00 in 87 W/m2
09:34 41.5 °F 41.3 °F 30.07 in North 2.3 mph 3 mph 99% 0.00 in 117 W/m2
09:39 41.5 °F 41.3 °F 30.07 in North 3.1 mph 3 mph 99% 0.00 in 157 W/m2
09:44 41.7 °F 41.5 °F 30.07 in NNE 3.5 mph 3.1 mph 99% 0.00 in 210 W/m2
09:49 42 °F 41.7 °F 30.07 in NNE 3.5 mph 5 mph 99% 0.00 in 206 W/m2
09:54 42.1 °F 41.8 °F 30.06 in NNE 3.2 mph 4 mph 99% 0.00 in 154 W/m2
09:59 42.3 °F 42 °F 30.06 in NNE 2.5 mph 4 mph 99% 0.00 in 99 W/m2
10:04 42.3 °F 42 °F 30.06 in NNE 1.7 mph 3 mph 99% 0.00 in 104 W/m2
10:09 42.3 °F 42 °F 30.06 in NNE 2.8 mph 2.5 mph 99% 0.00 in 92 W/m2
10:14 42.3 °F 42 °F 30.06 in NNE 3 mph 5 mph 99% 0.00 in 103 W/m2
10:19 42.3 °F 42 °F 30.06 in NE 2 mph 3 mph 99% 0.00 in 101 W/m2
10:24 42.3 °F 42 °F 30.05 in NNE 1.9 mph 2 mph 99% 0.00 in 102 W/m2
10:29 42.3 °F 42 °F 30.05 in NNE 3.1 mph 3 mph 99% 0.00 in 103 W/m2
10:34 42.3 °F 42 °F 30.05 in NNE 1.6 mph 4 mph 99% 0.00 in 77 W/m2
10:39 42.3 °F 42 °F 30.05 in NNE 3 mph 2.2 mph 99% 0.00 in 82 W/m2
10:44 42.3 °F 42.1 °F 30.04 in NNE 1.5 mph 3 mph 99% 0.00 in 91 W/m2
10:49 42.4 °F 42.1 °F 30.04 in NNE 2.1 mph 3 mph 99% 0.00 in 104 W/m2
10:54 42.3 °F 42.1 °F 30.04 in NNE 1.2 mph 3 mph 99% 0.00 in 103 W/m2
10:59 42.4 °F 42.2 °F 30.04 in North 1.6 mph 2 mph 99% 0.00 in 86 W/m2
11:04 42.4 °F 42.2 °F 30.04 in North 1.7 mph 2 mph 99% 0.00 in 109 W/m2
11:09 42.4 °F 42.2 °F 30.04 in North 1.9 mph 2 mph 99% 0.02 in 108 W/m2
11:14 42.4 °F 42.2 °F 30.04 in North 3.2 mph 3 mph 99% 0.02 in 146 W/m2
11:19 42.6 °F 42.4 °F 30.04 in North 3.4 mph 4 mph 99% 0.02 in 177 W/m2
11:24 42.8 °F 42.5 °F 30.04 in NNE 4.5 mph 5 mph 99% 0.02 in 206 W/m2
11:29 43 °F 42.7 °F 30.04 in NNE 4.5 mph 6 mph 99% 0.02 in 202 W/m2
11:34 43.2 °F 42.9 °F 30.04 in NNE 5.1 mph 5 mph 99% 0.02 in 162 W/m2
11:39 43.2 °F 42.9 °F 30.04 in NNE 4.2 mph 6 mph 99% 0.02 in 135 W/m2
11:44 43.2 °F 42.9 °F 30.04 in NNE 4.3 mph 5 mph 99% 0.02 in 90 W/m2
11:49 43.2 °F 42.9 °F 30.04 in NNE 4.4 mph 5 mph 99% 0.02 in 84 W/m2
11:54 43.2 °F 42.9 °F 30.04 in NNE 5.9 mph 7 mph 99% 0.02 in 73 W/m2
11:59 43 °F 42.7 °F 30.03 in North 6 mph 7 mph 99% 0.02 in 77 W/m2
12:04 43 °F 42.7 °F 30.04 in NNE 5.4 mph 7 mph 99% 0.02 in 99 W/m2
12:09 43 °F 42.7 °F 30.04 in NNE 4.6 mph 6 mph 99% 0.02 in 103 W/m2
12:14 43.1 °F 42.8 °F 30.04 in NNE 4.9 mph 6 mph 99% 0.00 in 105 W/m2
12:19 43.2 °F 42.9 °F 30.03 in NNE 5.3 mph 6 mph 99% 0.00 in 98 W/m2
12:24 43.2 °F 42.9 °F 30.03 in NNE 4.5 mph 7 mph 99% 0.00 in 69 W/m2
12:29 43.2 °F 42.9 °F 30.03 in NNE 2.9 mph 5 mph 99% 0.00 in 60 W/m2
12:34 43.2 °F 42.9 °F 30.03 in North 4.5 mph 4 mph 99% 0.00 in 61 W/m2
12:39 43.2 °F 42.9 °F 30.03 in North 4.1 mph 5 mph 99% 0.00 in 52 W/m2
12:44 43.1 °F 42.8 °F 30.03 in North 3.6 mph 5 mph 99% 0.00 in 50 W/m2
12:49 43 °F 42.7 °F 30.03 in NNE 3.5 mph 4 mph 99% 0.00 in 55 W/m2
12:54 43.1 °F 42.8 °F 30.03 in North 4.1 mph 4 mph 99% 0.00 in 63 W/m2
12:59 43.1 °F 42.8 °F 30.03 in North 5 mph 5 mph 99% 0.00 in 66 W/m2
13:04 43 °F 42.7 °F 30.02 in North 5.7 mph 7 mph 99% 0.00 in 65 W/m2
13:09 43 °F 42.7 °F 30.02 in North 4.4 mph 6 mph 99% 0.00 in 75 W/m2
13:14 43 °F 42.7 °F 30.02 in North 4.8 mph 5 mph 99% 0.00 in 76 W/m2
13:19 43.2 °F 42.9 °F 30.02 in NNE 5.3 mph 6 mph 99% 0.00 in 62 W/m2
13:24 43.2 °F 42.9 °F 30.02 in NNE 4.1 mph 6 mph 99% 0.00 in 57 W/m2
13:29 43.2 °F 42.9 °F 30.02 in NNE 5.3 mph 6 mph 99% 0.00 in 51 W/m2
13:34 43.2 °F 42.9 °F 30.02 in NNE 5 mph 6 mph 99% 0.00 in 61 W/m2
13:39 43.2 °F 42.9 °F 30.01 in NNE 3.4 mph 6 mph 99% 0.00 in 66 W/m2
13:44 43.2 °F 42.9 °F 30.02 in NNE 2.7 mph 4 mph 99% 0.00 in 63 W/m2
13:49 43.2 °F 42.9 °F 30.02 in North 3.1 mph 3 mph 99% 0.00 in 73 W/m2
13:54 43.2 °F 42.9 °F 30.02 in North 3.4 mph 5 mph 99% 0.00 in 73 W/m2
13:59 43.3 °F 43 °F 30.02 in North 2.4 mph 4 mph 99% 0.00 in 77 W/m2
Knjazevac, Serbia
Compliments of Weather Underground - 2 mb